Погода в Теруэли

Испания     40°20′29″N   1°06′30″W
темп.,
°C
ветер,
м/с
пор.,
м/с
влажн.,
%
обл.,
%
осадки,
мм/ч
давл.,
гПа
погр.,
м
21 апреля, ср
ср2123:00+8ююв1285100 2.3 1013168
02:00+8ююз1186100 4.0 1012117
05:00+7ююз118935 1.1 101110
08:00+7юз118374 1.4 101114
11:00+12зсз125668 0.6 10111161
14:00+12ю3457100 2.3 10101188
17:00+13ююз5654100 2.1 10091426
20:00+10юз4769100 4.1 10111054
22 апреля, чт
чт2223:00+8юв3484100 0.4 1013173
02:00+8вюв2389100 0.8 1012193
05:00+7ююв2494100 1.3 1012421
08:00+7вюв2392100 5.1 1012281
11:00+7ю3590100 1.6 1013516
14:00+10юв2275100 2.3 1012836
17:00+11юв3367100 1.4 1012863
20:00+9вюв348099 3.4 1014348
23 апреля, пт
пт2323:00+7вюв349390 0.8 1017276
02:00+7вюв239587 0.9 1018301
05:00+7в119591 0.1 1017213
08:00+7вюв119136 0.1 1018128
11:00+10юв337263 0.1 1018896
14:00+12юв3360100 0.1 10181239
17:00+12юв4362100 0.0 10171026
20:00+10юв4573100 0.1 1018483
24 апреля, сб
сб2423:00+7юв3397100 0.0 102098
02:00+6вюв3393100 0.0 1020191
05:00+6вюв239089 0.0 101991
08:00+5вюв349020 0.0 1020123
11:00+10юв466290 0.0 1019763
14:00+13юв8849100 0.0 1017971
17:00+13юв8850100 0.0 10161006
20:00+10вюв4663100 0.0 1017539
25 апреля, вс
вс2523:00+7вюв46905 0.0 1019251
02:00+6вюв4794100 0.0 1018321
05:00+7вюв3685100 0.4 1015295
08:00+7вюв41286100 0.5 1014554
11:00+12юв8144911 0.1 1012809
14:00+14юв1114508 0.1 10121005
17:00+14юв1316515 0.0 1009848
20:00+11юв59610 0.0 1011630